GW1769 Weather Reports


time (UTC)temp
F
wind
direction
speed
knots
gust
knots
rain 1hr
in
rain 24hr
in
rain mn
in
humidity
%
barometer
mb
20260831135425 70 167 0.0 0.9 0.00 0.00 0.00 84 1017.7
20260831134921 69 178 0.0 0.0 0.00 0.00 0.00 85 1017.7
20260831134417 70 179 0.0 0.0 0.00 0.00 0.00 84 1017.6
20260831133917 71 159 0.0 0.9 0.00 0.00 0.00 82 1017.6
20260831133412 70 172 0.0 0.9 0.00 0.00 0.00 88 1017.5
20260831132907 69 173 0.9 1.7 0.00 0.00 0.00 87 1017.6
20260831132402 68 216 1.7 1.7 0.00 0.00 0.00 90 1017.6
20260831131902 67 172 0.0 0.0 0.00 0.00 0.00 91 1017.5
20260831131357 67 187 0.0 0.9 0.00 0.00 0.00 92 1017.8
20260831130853 67 176 0.0 0.0 0.00 0.00 0.00 93 1017.5
20260831130348 67 196 0.9 0.9 0.00 0.00 0.00 92 1017.5
20260831125847 68 176 0.9 1.7 0.00 0.00 0.00 92 1017.8
20260831125342 67 177 0.0 0.0 0.00 0.00 0.00 92 1017.7
20260831124837 67 195 0.0 0.0 0.00 0.00 0.00 91 1017.7
20260831124333 67 181 0.0 0.0 0.00 0.00 0.00 92 1017.8
20260831123833 67 181 0.0 0.0 0.00 0.00 0.00 92 1017.6
20260831123332 67 175 0.0 0.0 0.00 0.00 0.00 92 1017.6
20260831122827 66 177 0.0 0.0 0.00 0.00 0.00 95 1017.9
20260831122323 66 176 0.0 0.0 0.00 0.00 0.00 96 1017.8
20260831121822 65 203 0.0 0.0 0.00 0.00 0.00 98 1017.9
20260831121319 65 191 0.0 0.0 0.00 0.00 0.00 99 1017.9
20260831120814 64 179 0.0 0.0 0.00 0.00 0.00 99 1017.9
20260831120308 64 176 0.0 0.0 0.00 0.00 0.00 99 1017.7
20260831115803 64 177 0.0 0.0 0.00 0.00 0.00 99 1017.6
20260831115300 64 179 0.0 0.0 0.00 0.00 0.00 99 1017.7
20260831114758 63 184 0.0 0.0 0.00 0.00 0.00 99 1017.8
20260831114253 64 177 0.0 0.0 0.00 0.00 0.00 99 1017.8
20260831113748 63 184 0.0 0.0 0.00 0.00 0.00 99 1017.6
20260831113243 63 176 0.0 0.0 0.00 0.00 0.00 99 1017.4
20260831112742 63 181 0.0 0.0 0.00 0.00 0.00 99 1017.4
20260831112238 63 180 0.0 0.0 0.00 0.00 0.00 99 1017.4
20260831111733 63 184 0.0 0.0 0.00 0.00 0.00 99 1017.5
20260831111229 62 185 0.0 0.0 0.00 0.00 0.00 99 1017.5
20260831110724 62 180 0.0 0.0 0.00 0.00 0.00 99 1017.4
20260831110220 62 182 0.0 0.0 0.00 0.00 0.00 99 1017.3
20260831105718 62 183 0.0 0.0 0.00 0.00 0.00 99 1017.4
20260831105214 61 180 0.0 0.0 0.00 0.00 0.00 99 1017.3
20260831104709 61 183 0.0 0.0 0.00 0.00 0.00 99 1017.2
20260831104206 61 192 0.0 0.0 0.00 0.00 0.00 99 1017.2
20260831103705 61 182 0.0 0.0 0.00 0.00 0.00 99 1017.0
20260831103201 61 181 0.0 0.0 0.00 0.00 0.00 99 1016.9
20260831102700 61 175 0.0 0.0 0.00 0.00 0.00 99 1016.8
20260831102155 61 176 0.0 0.0 0.00 0.00 0.00 99 1016.9
20260831101651 60 177 0.0 0.0 0.00 0.00 0.00 99 1016.9
20260831101146 60 185 0.0 0.0 0.00 0.00 0.00 99 1016.9
20260831100642 60 178 0.0 0.0 0.00 0.00 0.00 99 1017.0
20260831100139 60 180 0.0 0.0 0.00 0.00 0.00 99 1017.1
20260831095636 60 178 0.0 0.0 0.00 0.00 0.00 99 1017.0
20260831095132 60 178 0.0 0.0 0.00 0.00 0.00 99 1016.9
20260831094627 60 181 0.0 0.0 0.00 0.00 0.00 99 1016.9
20260831094123 60 176 0.0 0.0 0.00 0.00 0.00 99 1016.6
20260831093618 61 182 0.0 0.0 0.00 0.00 0.00 99 1016.6
20260831093114 61 188 0.0 0.0 0.00 0.00 0.00 99 1016.6
20260831092610 61 184 0.0 0.0 0.00 0.00 0.00 99 1016.8
20260831092106 61 183 0.0 0.0 0.00 0.00 0.00 99 1016.7
20260831091605 60 177 0.0 0.0 0.00 0.00 0.00 99 1016.6
20260831091101 60 176 0.0 0.0 0.00 0.00 0.00 99 1016.8
20260831090556 60 176 0.0 0.0 0.00 0.00 0.00 99 1016.4
20260831090052 61 176 0.0 0.0 0.00 0.00 0.00 99 1016.5
20260831085547 61 176 0.0 0.0 0.00 0.00 0.00 99 1016.6
20260831085042 61 179 0.0 0.0 0.00 0.00 0.00 99 1016.5
20260831084538 61 186 0.0 0.0 0.00 0.00 0.00 99 1016.5
20260831084034 61 194 0.0 0.0 0.00 0.00 0.00 99 1016.7
20260831083530 61 214 0.9 0.9 0.00 0.00 0.00 99 1016.6
20260831083029 61 188 0.0 0.0 0.00 0.00 0.00 99 1016.6
20260831082524 61 181 0.0 0.0 0.00 0.00 0.00 99 1016.9
20260831082019 61 181 0.0 0.0 0.00 0.00 0.00 99 1016.9
20260831081515 61 181 0.0 0.0 0.00 0.00 0.00 99 1016.6
20260831081010 61 204 0.0 0.0 0.00 0.00 0.00 99 1016.7
20260831080504 61 180 0.0 0.0 0.00 0.00 0.00 99 1016.6
20260831080000 62 180 0.0 0.0 0.00 0.00 0.00 99 1016.7
20260831075455 62 181 0.0 0.0 0.00 0.00 0.00 99 1016.6
20260831074950 62 185 0.0 0.0 0.00 0.00 0.00 99 1016.6
20260831074445 62 176 0.0 0.0 0.00 0.00 0.00 99 1016.3
20260831073944 62 188 0.0 0.0 0.00 0.00 0.00 99 1016.4
20260831073439 62 193 0.0 0.0 0.00 0.00 0.00 99 1016.4
20260831072933 62 191 0.0 0.0 0.00 0.00 0.00 99 1016.3
20260831072429 62 192 0.0 0.0 0.00 0.00 0.00 99 1016.3
20260831071925 62 184 0.0 0.0 0.00 0.00 0.00 99 1016.4
20260831071424 62 210 0.0 0.0 0.00 0.00 0.00 99 1016.3
20260831070924 62 185 0.0 0.0 0.00 0.00 0.00 99 1016.4
20260831070424 63 178 0.0 0.0 0.00 0.00 0.00 99 1016.6
20260831065923 63 179 0.0 0.0 0.00 0.00 0.00 99 1016.2
20260831065420 63 179 0.0 0.0 0.00 0.00 0.00 99 1016.5
20260831064916 63 163 0.0 0.0 0.00 0.00 0.00 99 1016.2
20260831064411 63 182 0.0 0.0 0.00 0.00 0.00 99 1016.3
20260831063906 63 179 0.0 0.0 0.00 0.00 0.00 99 1016.3
20260831063401 64 184 0.0 0.0 0.00 0.00 0.00 99 1016.3
20260831062856 63 185 0.0 0.0 0.00 0.00 0.00 99 1016.6
20260831062351 63 179 0.0 0.0 0.00 0.00 0.00 99 1016.7
20260831061850 63 173 0.0 0.0 0.00 0.00 0.00 99 1016.6
20260831061349 63 185 0.0 0.0 0.00 0.00 0.00 99 1016.5
20260831060845 63 181 0.0 0.0 0.00 0.00 0.00 99 1016.6
20260831060340 63 182 0.0 0.0 0.00 0.00 0.00 99 1016.5
20260831055839 63 215 0.0 0.0 0.00 0.00 0.00 99 1016.5
20260831055335 63 184 0.0 0.9 0.00 0.00 0.00 99 1016.4
20260831054830 63 186 0.9 1.7 0.00 0.00 0.00 99 1016.4
20260831054325 63 186 0.0 0.9 0.00 0.00 0.00 99 1016.3
20260831053824 63 192 0.0 0.0 0.00 0.00 0.00 99 1016.1
20260831053323 63 187 0.9 0.9 0.00 0.00 0.00 99 1016.5
20260831052817 63 184 0.0 0.0 0.00 0.00 0.00 98 1016.1
20260831052316 63 214 0.9 0.9 0.00 0.00 0.00 98 1016.2
20260831051814 63 251 1.7 1.7 0.00 0.00 0.00 98 1016.2
20260831051314 64 199 0.9 0.9 0.00 0.00 0.00 98 1016.2
20260831050808 64 188 0.9 1.7 0.00 0.00 0.00 98 1016.1
20260831050302 64 245 0.0 0.0 0.00 0.00 0.00 98 1016.3
20260831045756 63 230 0.0 0.9 0.00 0.00 0.00 99 1016.6
20260831045251 63 179 1.7 1.7 0.00 0.00 0.00 99 1016.5
20260831044745 63 189 0.9 1.7 0.00 0.00 0.00 99 1016.3
20260831044240 63 185 0.0 0.0 0.00 0.00 0.00 99 1016.3
20260831043736 64 176 0.0 0.0 0.00 0.00 0.00 98 1016.2
20260831043231 64 189 0.9 0.9 0.00 0.00 0.00 98 1016.2
20260831042730 64 188 0.0 0.9 0.00 0.00 0.00 99 1016.2
20260831042225 64 183 0.0 0.0 0.00 0.00 0.00 99 1016.4
20260831041721 64 201 0.9 1.7 0.00 0.00 0.00 99 1016.4
20260831041220 63 235 0.9 1.7 0.00 0.00 0.00 99 1016.3
20260831040715 63 195 0.0 0.9 0.00 0.00 0.00 99 1016.5
20260831040214 63 184 0.0 0.0 0.00 0.00 0.00 99 1016.5
20260831035713 63 200 0.0 0.0 0.00 0.00 0.00 99 1016.6
20260831035207 63 222 0.0 0.0 0.00 0.00 0.00 99 1016.5
20260831034707 63 205 0.0 0.9 0.00 0.00 0.00 99 1016.4
20260831034203 63 177 0.0 0.0 0.00 0.00 0.00 99 1016.4
20260831033658 63 180 0.0 0.0 0.00 0.00 0.00 99 1016.4
20260831033157 63 189 0.0 0.0 0.00 0.00 0.00 99 1016.3
20260831032652 63 181 0.0 0.0 0.00 0.00 0.00 99 1016.5
20260831032148 62 182 0.0 0.0 0.00 0.00 0.00 99 1016.7
20260831031647 62 173 0.0 0.0 0.00 0.00 0.00 99 1016.7
20260831031147 62 181 0.0 0.0 0.00 0.00 0.00 99 1016.6
20260831030645 63 168 0.9 0.9 0.00 0.00 0.00 99 1016.5
20260831030144 63 167 0.0 0.0 0.00 0.00 0.00 99 1016.6
20260831025643 63 171 0.0 0.0 0.00 0.00 0.00 99 1016.6
20260831025138 63 181 0.0 0.0 0.00 0.00 0.00 99 1016.6
20260831024635 63 184 0.0 0.0 0.00 0.00 0.00 99 1016.5
20260831024134 63 184 0.0 0.0 0.00 0.00 0.00 99 1016.7
20260831023632 63 181 0.0 0.0 0.00 0.00 0.00 99 1016.5
20260831023132 63 183 0.0 0.0 0.00 0.00 0.00 99 1016.6
20260831022627 63 190 0.0 0.0 0.00 0.00 0.00 99 1016.3
20260831022122 63 291 0.0 1.7 0.00 0.00 0.00 99 1016.3
20260831021620 63 181 0.0 0.0 0.00 0.00 0.00 99 1016.0
20260831021116 63 216 0.0 0.0 0.00 0.00 0.00 99 1016.0
20260831020612 63 182 0.0 0.0 0.00 0.00 0.00 99 1016.1
20260831020107 63 190 0.0 0.0 0.00 0.00 0.00 99 1016.3
20260831015602 63 186 1.7 1.7 0.00 0.00 0.00 99 1016.1
20260831015057 63 227 0.9 1.7 0.00 0.00 0.00 99 1016.3
20260831014552 63 189 0.0 0.0 0.00 0.00 0.00 99 1016.3
20260831014047 63 193 0.0 0.0 0.00 0.00 0.00 98 1016.3
20260831013543 64 202 0.9 1.7 0.00 0.00 0.00 98 1016.5
20260831013037 64 192 0.0 0.9 0.00 0.00 0.00 98 1016.5
20260831012532 64 239 0.0 0.0 0.00 0.00 0.00 98 1016.6
20260831012027 64 188 0.0 0.0 0.00 0.00 0.00 98 1016.6
20260831011526 64 200 0.0 0.0 0.00 0.00 0.00 98 1016.5
20260831011022 64 200 0.0 0.0 0.00 0.00 0.00 98 1016.2
20260831010522 63 196 0.0 0.0 0.00 0.00 0.00 98 1016.5
20260831010019 63 190 0.0 0.0 0.00 0.00 0.00 98 1016.3
20260831005519 63 181 0.0 0.0 0.00 0.00 0.00 98 1016.4
20260831005018 63 178 0.0 0.0 0.00 0.00 0.00 98 1016.2
20260831004515 63 187 0.0 0.0 0.00 0.00 0.00 99 1016.3
20260831004010 63 181 0.0 0.0 0.00 0.00 0.00 99 1016.0
20260831003506 63 194 0.0 0.0 0.00 0.00 0.00 99 1016.0
20260831003002 63 177 0.0 0.0 0.00 0.00 0.00 99 1015.6
20260831002500 63 181 0.0 0.0 0.00 0.00 0.00 99 1015.7
20260831001955 63 192 0.0 0.0 0.00 0.00 0.00 99 1015.9
20260831001450 63 182 0.0 0.0 0.00 0.00 0.00 99 1015.4
20260831000948 63 181 0.0 0.0 0.00 0.00 0.00 99 1015.4
20260831000443 63 177 0.0 0.0 0.00 0.00 0.00 99 1015.2
20260830235941 63 181 0.0 0.0 0.00 0.00 0.00 99 1015.1
20260830235437 63 185 0.0 0.0 0.00 0.00 0.00 99 1015.2
20260830234932 63 181 0.0 0.0 0.00 0.00 0.00 99 1015.1
20260830234427 63 181 0.0 0.0 0.00 0.00 0.00 99 1014.9
20260830233923 63 180 0.0 0.0 0.00 0.00 0.00 99 1015.0
20260830233418 63 189 0.0 0.0 0.00 0.00 0.00 99 1015.0
20260830232914 63 185 0.0 0.0 0.00 0.00 0.00 98 1015.0
20260830232409 63 184 0.0 0.0 0.00 0.00 0.00 98 1015.0
20260830231906 63 187 0.0 0.9 0.00 0.00 0.00 98 1015.0
20260830231401 63 187 0.0 0.0 0.00 0.00 0.00 98 1014.9
20260830230900 63 190 0.0 0.0 0.00 0.00 0.00 97 1014.7
20260830230356 63 186 0.9 1.7 0.00 0.00 0.00 97 1014.7
20260830225855 63 197 0.0 0.9 0.00 0.00 0.00 97 1014.7
20260830225350 63 198 0.0 0.9 0.00 0.00 0.00 97 1014.9
20260830224845 64 181 0.9 0.9 0.00 0.00 0.00 97 1014.9
20260830224339 63 218 0.0 0.9 0.00 0.00 0.00 97 1015.0
20260830223836 63 186 0.9 0.9 0.00 0.00 0.00 97 1015.1
20260830223332 63 237 1.7 1.7 0.00 0.00 0.00 96 1015.1
20260830222831 64 222 1.7 1.7 0.00 0.00 0.00 96 1015.2
20260830222326 64 294 2.6 4.3 0.00 0.00 0.00 95 1015.4
20260830221821 64 202 1.7 1.7 0.00 0.00 0.00 95 1015.5
20260830221319 65 233 1.7 1.7 0.00 0.00 0.00 95 1015.5
20260830220818 66 206 2.6 2.6 0.00 0.00 0.00 93 1015.6
20260830220318 66 224 0.9 0.9 0.00 0.00 0.00 91 1015.3
20260830215816 67 222 1.7 1.7 0.00 0.00 0.00 88 1015.2
20260830215311 68 202 0.9 0.9 0.00 0.00 0.00 86 1015.3
20260830214806 68 264 1.7 1.7 0.00 0.00 0.00 84 1015.0
20260830214301 69 261 1.7 1.7 0.00 0.00 0.00 82 1015.2
20260830213800 69 242 0.9 1.7 0.00 0.00 0.00 80 1015.0
20260830213255 70 188 1.7 1.7 0.00 0.00 0.00 79 1015.0
20260830212751 70 286 1.7 2.6 0.00 0.00 0.00 79 1014.9
20260830212247 70 211 0.9 1.7 0.00 0.00 0.00 79 1014.7
20260830211746 70 185 0.9 1.7 0.00 0.00 0.00 79 1014.8
20260830211245 70 197 0.9 1.7 0.00 0.00 0.00 79 1014.3
20260830210742 70 194 0.9 1.7 0.00 0.00 0.00 80 1014.3
20260830210241 70 173 0.0 0.0 0.00 0.00 0.00 81 1014.8
20260830205738 70 200 0.9 0.9 0.00 0.00 0.00 81 1014.8
20260830205233 70 177 0.0 0.0 0.00 0.00 0.00 82 1014.3
20260830204728 70 195 0.0 0.9 0.00 0.00 0.00 82 1014.7
20260830204227 70 183 0.0 0.0 0.00 0.00 0.00 84 1014.3
20260830203723 70 181 0.0 0.0 0.00 0.00 0.00 84 1014.7
20260830203219 70 186 0.0 0.0 0.00 0.00 0.00 84 1014.4
20260830202718 70 192 0.0 0.0 0.00 0.00 0.00 83 1014.6
20260830202214 70 181 0.0 0.0 0.00 0.00 0.00 82 1014.8
20260830201713 71 179 0.0 0.0 0.00 0.00 0.00 81 1014.8
20260830201208 71 183 0.0 0.0 0.00 0.00 0.00 81 1014.7
20260830200704 71 184 0.0 0.0 0.00 0.00 0.00 81 1014.6
20260830200203 72 189 0.9 0.9 0.00 0.00 0.00 79 1014.6
20260830195659 72 191 0.0 0.9 0.00 0.00 0.00 78 1014.4
20260830195156 73 188 0.0 0.0 0.00 0.00 0.00 77 1014.8
20260830194655 73 204 0.9 0.9 0.00 0.00 0.00 74 1014.7
20260830194150 73 194 0.0 0.0 0.00 0.00 0.00 72 1014.8
20260830193644 74 175 0.0 0.0 0.00 0.00 0.00 75 1014.6
20260830193139 74 182 0.0 0.0 0.00 0.00 0.00 73 1014.6
20260830192634 74 194 1.7 1.7 0.00 0.00 0.00 70 1014.6
20260830192129 74 190 0.0 0.9 0.00 0.00 0.00 75 1015.0
20260830191625 74 185 0.9 0.9 0.00 0.00 0.00 72 1014.9
20260830191120 74 174 1.7 1.7 0.00 0.00 0.00 72 1015.0
20260830190615 75 193 0.0 0.0 0.00 0.00 0.00 73 1015.0
20260830190109 75 180 0.0 0.0 0.00 0.00 0.00 72 1015.1
20260830185603 75 179 0.0 0.0 0.00 0.00 0.00 71 1015.2
20260830185059 76 209 1.7 1.7 0.00 0.00 0.00 69 1014.8
20260830184558 77 188 0.9 1.7 0.00 0.00 0.00 69 1015.3
20260830184052 76 184 0.0 0.0 0.00 0.00 0.00 74 1015.3
20260830183547 77 231 2.6 4.3 0.00 0.00 0.00 71 1015.2
20260830183043 77 186 1.7 4.3 0.00 0.00 0.00 68 1015.4
20260830182538 77 208 0.9 0.9 0.00 0.00 0.00 69 1015.2
20260830182034 76 167 0.0 0.9 0.00 0.00 0.00 76 1015.3
20260830181531 75 188 0.9 0.9 0.00 0.00 0.00 73 1015.4
20260830181030 75 184 0.0 0.9 0.00 0.00 0.00 74 1015.4
20260830180529 74 201 0.9 0.9 0.00 0.00 0.00 75 1015.5
20260830180028 74 190 0.0 0.0 0.00 0.00 0.00 76 1015.7
20260830175527 74 170 0.0 0.9 0.00 0.00 0.00 76 1015.5
20260830175023 74 215 0.9 0.9 0.00 0.00 0.00 76 1015.6
20260830174519 74 201 2.6 4.3 0.00 0.00 0.00 75 1015.5
20260830174014 74 189 0.0 0.0 0.00 0.00 0.00 76 1015.4
20260830173509 74 159 0.0 0.9 0.00 0.00 0.00 73 1015.4
20260830173004 74 247 0.9 0.9 0.00 0.00 0.00 73 1015.5
20260830172501 74 181 0.0 0.0 0.00 0.00 0.00 75 1015.7
20260830171956 74 191 0.9 0.9 0.00 0.00 0.00 74 1015.7
20260830171451 73 184 0.0 1.7 0.00 0.00 0.00 74 1015.7
20260830170951 73 199 0.0 0.9 0.00 0.00 0.00 78 1015.8
20260830170446 73 190 0.9 1.7 0.00 0.00 0.00 75 1015.7
20260830165944 74 206 0.9 0.9 0.00 0.00 0.00 74 1015.9
20260830165441 74 179 0.0 0.0 0.00 0.00 0.00 73 1016.0
20260830164936 74 156 2.6 2.6 0.00 0.00 0.00 71 1016.1
20260830164432 74 193 0.9 0.9 0.00 0.00 0.00 72 1015.9
20260830163928 75 212 2.6 2.6 0.00 0.00 0.00 70 1016.1
20260830163425 75 202 0.9 0.9 0.00 0.00 0.00 73 1016.1
20260830162923 76 187 0.9 0.9 0.00 0.00 0.00 71 1016.1
20260830162420 75 188 0.9 0.9 0.00 0.00 0.00 72 1016.1
20260830161914 76 173 0.9 0.9 0.00 0.00 0.00 70 1016.4
20260830161413 76 180 0.9 0.9 0.00 0.00 0.00 70 1016.2
20260830160909 78 184 1.7 1.7 0.00 0.00 0.00 70 1016.1
20260830160405 76 187 0.0 0.0 0.00 0.00 0.00 70 1016.3
20260830155900 74 184 0.0 0.0 0.00 0.00 0.00 77 1016.5
20260830155356 73 179 0.0 0.0 0.00 0.00 0.00 76 1016.6
20260830154851 73 181 0.9 0.9 0.00 0.00 0.00 71 1016.6
20260830154347 73 163 0.0 0.9 0.00 0.00 0.00 73 1016.6
20260830153844 73 181 0.0 0.9 0.00 0.00 0.00 70 1016.7
20260830153339 73 185 0.0 0.0 0.00 0.00 0.00 71 1016.7
20260830152837 73 180 0.0 0.0 0.00 0.00 0.00 74 1016.5
20260830152332 72 178 0.9 0.9 0.00 0.00 0.00 72 1016.7
20260830151827 71 178 0.0 0.0 0.00 0.00 0.00 73 1017.0
20260830151326 71 193 1.7 1.7 0.00 0.00 0.00 72 1017.0
20260830150821 71 190 0.0 0.0 0.00 0.00 0.00 73 1017.0
20260830150321 70 179 0.0 0.0 0.00 0.00 0.00 75 1016.9
20260830145815 70 208 0.9 0.9 0.00 0.00 0.00 74 1016.9
20260830145310 70 198 0.0 0.9 0.00 0.00 0.00 73 1016.9
20260830144806 70 181 0.0 0.0 0.00 0.00 0.00 75 1017.1
20260830144301 70 180 0.0 0.0 0.00 0.00 0.00 75 1016.9
20260830143757 70 165 0.9 1.7 0.00 0.00 0.00 75 1016.9
20260830143256 71 181 0.9 0.9 0.00 0.00 0.00 76 1017.1
20260830142751 70 181 0.0 0.0 0.00 0.00 0.00 77 1016.8
20260830142246 70 177 0.0 0.0 0.00 0.00 0.00 76 1016.9
20260830141741 70 182 0.0 0.0 0.00 0.00 0.00 77 1016.6
20260830141236 69 181 0.0 0.0 0.00 0.00 0.00 76 1017.1
20260830140731 69 180 0.0 0.0 0.00 0.00 0.00 76 1017.0
20260830140226 69 182 0.0 0.0 0.00 0.00 0.00 77 1017.1